This demonstration page uses our WeatherBlox Daily Observations layout. Learn more.

41.55636, -103.73856

Hourly Observations for November 16, 2015

Temp ( °F °C ) Dew Point ( °F °C ) Humidity (%) Winds ( mph kmh ) Pressure ( in mb ) Visibility ( mi km ) Precip ( " mm )
12:53 am 00:53 Clear 28 -2.2 25 -3.9 88 88 NNW 3 6 29.54 1000 10 16.0934 0 0
1:53 am 01:53 Clear 22 -5.6 19 -7.2 89 89 NNE 3 6 29.55 1001 10 16.0934 0 0
2:03 am 02:03 Mostly Clear with Mist and Fog 23 -5 19 -7 86 86 NE 3 6 29.74 1007 2 3.21868 0 0
2:05 am 02:05 Mostly Cloudy with Mist and Fog 23 -5 20 -6.7 88 88 NE 3 6 29.74 1007 0.75 1.207005 0 0
2:13 am 02:13 Mostly Cloudy with Freezing Fog 22 -5.6 20 -6.7 92 92 Calm 29.77 1008 0.25 0.402335 0 0
2:25 am 02:25 Mostly Cloudy with Freezing Fog 22 -5.6 19 -7.2 89 89 NNW 5 7 29.77 1008 0.5 0.80467 0 0
2:33 am 02:33 Cloudy with Mist and Fog 22 -5.6 19 -7.2 89 89 NW 5 7 29.77 1008 3 4.82802 0 0
2:53 am 02:53 Mostly Cloudy 24 -4.4 22 -5.6 91 91 Calm 29.55 1001 7 11.26538 0 0
3:05 am 03:05 Partly Cloudy 22 -5.6 20 -6.7 92 92 NW 7 11 29.77 1008 10 16.0934 0 0
3:53 am 03:53 Clear 21 -6.1 19 -7.2 92 92 N 7 11 29.56 1001 10 16.0934 0 0
4:53 am 04:53 Clear 21 -6.1 19 -7.2 92 92 NNW 5 7 29.6 1002 10 16.0934 0 0
5:53 am 05:53 Clear 24 -4.4 20 -6.7 84 84 NNW 5 7 29.57 1001 10 16.0934 0 0
6:53 am 06:53 Sunny 25 -3.9 22 -5.6 88 88 Calm 29.6 1002 10 16.0934 0 0
7:53 am 07:53 Sunny 27 -2.8 24 -4.4 89 89 N 3 6 29.59 1002 10 16.0934 0 0
8:53 am 08:53 Mostly Sunny 31 -0.6 28 -2.2 89 89 Calm 29.58 1002 8 12.87472 0 0
9:53 am 09:53 Sunny 35 1.7 30 -1.1 82 82 WNW 6 9 29.57 1002 10 16.0934 0 0
10:53 am 10:53 Mostly Cloudy 38 3.3 28 -2.2 68 68 WNW 9 15 29.57 1001 10 16.0934 0 0
11:53 am 11:53 Mostly Cloudy 44 6.7 26 -3.3 49 49 Calm 29.55 1001 10 16.0934 0 0
12:53 pm 12:53 Cloudy 46 7.8 26 -3.3 46 46 NW 10 17 29.52 1000 10 16.0934 0 0
1:53 pm 13:53 Mostly Cloudy 49 9.4 29 -1.7 46 46 W 6 9 29.53 1000 10 16.0934 0 0
2:53 pm 14:53 Mostly Cloudy 49 9.4 29 -1.7 46 46 W 7 11 29.54 1000 10 16.0934 0 0
3:53 pm 15:53 Cloudy 49 9.4 32 0 52 52 NW 12 19 29.57 1001 10 16.0934 0 0
4:53 pm 16:53 Cloudy 47 8.3 31 -0.6 54 54 NW 10 17 29.59 1002 10 16.0934 0 0
5:53 pm 17:53 Cloudy 48 8.9 24 -4.4 39 39 NW 16 26 29.59 1002 10 16.0934 0 0
6:53 pm 18:53 Partly Cloudy 47 8.3 27 -2.8 46 46 N 25 41 29.63 1003 10 16.0934 0 0
7:53 pm 19:53 Cloudy 46 7.8 27 -2.8 47 47 N 29 46 29.65 1004 10 16.0934 0 0
8:53 pm 20:53 Cloudy 43 6.1 28 -2.2 56 56 N 20 31 29.68 1005 10 16.0934 0 0
9:53 pm 21:53 Cloudy 41 5 29 -1.7 62 62 N 26 43 29.71 1006 10 16.0934 0 0
10:53 pm 22:53 Cloudy with Light Rain 38 3.3 31 -0.6 76 76 N 24 39 29.74 1007 10 16.0934 0 0.0254
11:28 pm 23:28 Windy with Snow Likely 36 2 32 0 87 87 N 21 33 29.8 1009 4 6.43736 0 0
11:34 pm 23:34 Windy with Snow Likely 34 1 30 -1 87 87 NNW 20 31 29.83 1010 2.5 4.02335 0 0
11:38 pm 23:38 Windy with Snow Likely 34 1 30 -1 87 87 NNW 21 33 29.83 1010 1.75 2.816345 0 0
11:53 pm 23:53 Cloudy with Light Snow 34 1.1 32 0 92 92 NNW 16 26 29.75 1007 1.25 2.011675 0.03 0.762

Powered by AerisWeather